Back to catalog

STARLINK-3162

AliveCommunicationsVLEO
NORAD 49411·PAYLOAD·🇺🇸 United States

Launched Nov 13, 2021 from Cape Canaveral Space Force Station

Loading…

Next Passes (next 24 hours)

TLE

FreshSource: CelesTrak SupGP

Epoch: Sep 14, 2026, 13:50 UTC

1 49411C 21104D   26257.57687500 -.00006530  00000+0 -19291-3 0  2574
2 49411  53.1582  79.7587 0001385  93.4086 117.4046 15.34398552    14

Track STARLINK-3162 in real time with AllMySat

Download on the App Store